Time,TemperatureF,DewpointF,PressureIn,WindDirection,WindDirectionDegrees,WindSpeedMPH,WindSpeedGustMPH,Humidity,HourlyPrecipIn,Conditions,Clouds,dailyrainin,SoftwareType,DateUTC
2013-08-10 00:00:00,46.6,19.0,30.03,South,183,0.0,0.0,33,0.00,,---,0.00,VWS V14.01,2013-08-10 07:00:00,
2013-08-10 00:06:00,46.6,19.0,30.03,NE,55,0.0,0.0,33,0.00,,---,0.00,VWS V14.01,2013-08-10 07:06:00,
2013-08-10 00:11:00,46.8,19.2,30.03,NE,55,0.0,0.0,33,0.00,,---,0.00,VWS V14.01,2013-08-10 07:11:00,
2013-08-10 00:13:00,46.8,19.2,30.03,NE,55,0.0,0.0,33,0.00,,---,0.00,VWS V14.01,2013-08-10 07:13:00,
2013-08-10 00:19:00,46.0,18.6,30.03,NE,55,0.0,0.0,33,0.00,,---,0.00,VWS V14.01,2013-08-10 07:19:00,
2013-08-10 00:25:00,45.3,17.9,30.03,NE,39,0.0,0.0,33,0.00,,---,0.00,VWS V14.01,2013-08-10 07:25:00,
2013-08-10 00:30:00,45.1,17.8,30.03,NE,39,0.0,0.0,33,0.00,,---,0.00,VWS V14.01,2013-08-10 07:30:00,
2013-08-10 00:35:00,44.8,17.5,30.03,NE,39,0.0,0.0,33,0.00,,---,0.00,VWS V14.01,2013-08-10 07:35:00,
2013-08-10 00:41:00,44.6,17.3,30.03,NE,39,0.0,0.0,33,0.00,,---,0.00,VWS V14.01,2013-08-10 07:41:00,
2013-08-10 00:47:00,44.2,18.0,30.03,NE,39,0.0,0.0,34,0.00,,---,0.00,VWS V14.01,2013-08-10 07:47:00,
2013-08-10 00:53:00,43.9,17.7,30.03,NE,39,0.0,0.0,34,0.00,,---,0.00,VWS V14.01,2013-08-10 07:53:00,
2013-08-10 00:58:00,43.7,17.5,30.03,NE,39,0.0,0.0,34,0.00,,---,0.00,VWS V14.01,2013-08-10 07:58:00,
2013-08-10 01:04:00,43.0,16.9,30.03,NE,39,0.0,0.0,34,0.00,,---,0.00,VWS V14.01,2013-08-10 08:04:00,
2013-08-10 01:09:00,43.2,17.0,30.03,NE,39,0.0,0.0,34,0.00,,---,0.00,VWS V14.01,2013-08-10 08:09:00,
2013-08-10 01:15:00,43.0,16.9,30.03,NE,39,0.0,0.0,34,0.00,,---,0.00,VWS V14.01,2013-08-10 08:15:00,
2013-08-10 01:20:00,43.0,16.9,30.03,NE,39,0.0,0.0,34,0.00,,---,0.00,VWS V14.01,2013-08-10 08:20:00,
2013-08-10 01:25:00,42.1,16.1,30.03,NE,39,0.0,0.0,34,0.00,,---,0.00,VWS V14.01,2013-08-10 08:25:00,
2013-08-10 01:30:00,41.9,15.9,30.03,NE,39,0.0,0.0,34,0.00,,---,0.00,VWS V14.01,2013-08-10 08:30:00,
2013-08-10 01:36:00,41.9,15.9,30.03,NE,39,0.0,0.0,34,0.00,,---,0.00,VWS V14.01,2013-08-10 08:36:00,
2013-08-10 01:42:00,41.9,15.9,30.03,NE,39,0.0,0.0,34,0.00,,---,0.00,VWS V14.01,2013-08-10 08:42:00,
2013-08-10 01:47:00,41.7,15.8,30.03,NE,39,0.0,0.0,34,0.00,,---,0.00,VWS V14.01,2013-08-10 08:47:00,
2013-08-10 01:52:00,41.4,15.4,30.03,NE,39,0.0,0.0,34,0.00,,---,0.00,VWS V14.01,2013-08-10 08:52:00,
2013-08-10 01:58:00,40.6,14.8,30.03,NE,39,0.0,0.0,34,0.00,,---,0.00,VWS V14.01,2013-08-10 08:58:00,
2013-08-10 02:04:00,40.8,15.0,30.03,NE,39,0.0,0.0,34,0.00,,---,0.00,VWS V14.01,2013-08-10 09:04:00,
2013-08-10 02:09:00,40.8,15.0,30.03,NE,39,0.0,0.0,34,0.00,,---,0.00,VWS V14.01,2013-08-10 09:09:00,
2013-08-10 02:14:00,40.8,15.0,30.03,NE,39,0.0,0.0,34,0.00,,---,0.00,VWS V14.01,2013-08-10 09:14:00,
2013-08-10 02:19:00,40.6,17.6,30.03,NE,39,0.0,0.0,39,0.00,,---,0.00,VWS V14.01,2013-08-10 09:19:00,
2013-08-10 02:25:00,40.5,17.5,30.03,NE,39,0.0,0.0,39,0.00,,---,0.00,VWS V14.01,2013-08-10 09:25:00,
2013-08-10 02:30:00,40.3,17.3,30.03,NE,39,0.0,0.0,39,0.00,,---,0.00,VWS V14.01,2013-08-10 09:30:00,
2013-08-10 02:36:00,39.9,17.0,30.03,NE,39,0.0,0.0,39,0.00,,---,0.00,VWS V14.01,2013-08-10 09:36:00,
2013-08-10 02:41:00,39.9,17.0,30.03,NE,39,0.0,0.0,39,0.00,,---,0.00,VWS V14.01,2013-08-10 09:41:00,
2013-08-10 02:47:00,39.9,17.0,30.03,NE,39,0.0,0.0,39,0.00,,---,0.00,VWS V14.01,2013-08-10 09:47:00,
2013-08-10 02:53:00,39.4,16.5,30.03,NE,39,0.0,0.0,39,0.00,,---,0.00,VWS V14.01,2013-08-10 09:53:00,
2013-08-10 02:58:00,39.2,16.3,30.03,NE,39,0.0,0.0,39,0.00,,---,0.00,VWS V14.01,2013-08-10 09:58:00,
2013-08-10 03:03:00,39.2,16.3,30.03,NE,39,0.0,0.0,39,0.00,,---,0.00,VWS V14.01,2013-08-10 10:03:00,
2013-08-10 03:08:00,39.2,16.3,30.03,NE,39,0.0,0.0,39,0.00,,---,0.00,VWS V14.01,2013-08-10 10:08:00,
2013-08-10 03:14:00,39.2,16.3,30.03,NE,39,0.0,0.0,39,0.00,,---,0.00,VWS V14.01,2013-08-10 10:14:00,
2013-08-10 03:19:00,38.8,16.0,30.03,NE,39,0.0,0.0,39,0.00,,---,0.00,VWS V14.01,2013-08-10 10:19:00,
2013-08-10 03:24:00,38.5,15.7,30.03,North,353,0.0,0.0,39,0.00,,---,0.00,VWS V14.01,2013-08-10 10:24:00,
2013-08-10 03:30:00,38.3,15.5,30.03,North,353,0.0,0.0,39,0.00,,---,0.00,VWS V14.01,2013-08-10 10:30:00,
2013-08-10 03:35:00,38.5,15.7,30.03,North,353,0.0,0.0,39,0.00,,---,0.00,VWS V14.01,2013-08-10 10:35:00,
2013-08-10 03:41:00,38.7,15.9,30.03,SE,135,0.0,0.0,39,0.00,,---,0.00,VWS V14.01,2013-08-10 10:41:00,
2013-08-10 03:46:00,38.1,15.4,30.03,SE,134,0.0,0.0,39,0.00,,---,0.00,VWS V14.01,2013-08-10 10:46:00,
2013-08-10 03:52:00,37.6,14.9,30.03,ENE,59,0.0,0.0,39,0.00,,---,0.00,VWS V14.01,2013-08-10 10:52:00,
2013-08-10 03:57:00,37.6,14.9,30.03,ENE,59,0.0,0.0,39,0.00,,---,0.00,VWS V14.01,2013-08-10 10:57:00,
2013-08-10 04:03:00,37.9,15.2,30.03,ENE,59,0.0,0.0,39,0.00,,---,0.00,VWS V14.01,2013-08-10 11:03:00,
2013-08-10 04:09:00,37.8,15.0,30.03,ENE,59,0.0,0.0,39,0.00,,---,0.00,VWS V14.01,2013-08-10 11:09:00,
2013-08-10 04:15:00,37.4,17.2,30.03,ENE,59,0.0,0.0,44,0.00,,---,0.00,VWS V14.01,2013-08-10 11:15:00,
2013-08-10 04:20:00,37.4,17.2,30.03,ENE,59,0.0,0.0,44,0.00,,---,0.00,VWS V14.01,2013-08-10 11:20:00,
2013-08-10 04:25:00,37.6,17.4,30.03,ENE,59,0.0,0.0,44,0.00,,---,0.00,VWS V14.01,2013-08-10 11:25:00,
2013-08-10 04:30:00,37.8,17.6,30.03,SE,134,2.7,2.7,44,0.00,,---,0.00,VWS V14.01,2013-08-10 11:30:00,
2013-08-10 04:36:00,37.6,17.4,30.03,ENE,72,0.0,0.0,44,0.00,,---,0.00,VWS V14.01,2013-08-10 11:36:00,
2013-08-10 04:41:00,37.0,16.9,30.03,NNE,24,0.0,0.0,44,0.00,,---,0.00,VWS V14.01,2013-08-10 11:41:00,
2013-08-10 04:47:00,36.7,16.6,30.03,North,357,0.0,0.0,44,0.00,,---,0.00,VWS V14.01,2013-08-10 11:47:00,
2013-08-10 04:53:00,36.7,16.6,30.03,North,3,0.0,0.0,44,0.00,,---,0.00,VWS V14.01,2013-08-10 11:53:00,
2013-08-10 04:58:00,36.7,16.6,30.03,ESE,106,0.0,0.0,44,0.00,,---,0.00,VWS V14.01,2013-08-10 11:58:00,
2013-08-10 05:04:00,36.9,16.7,30.03,East,79,0.0,0.0,44,0.00,,---,0.00,VWS V14.01,2013-08-10 12:04:00,
2013-08-10 05:10:00,36.7,16.6,30.03,North,357,0.0,0.0,44,0.00,,---,0.00,VWS V14.01,2013-08-10 12:10:00,
2013-08-10 05:16:00,36.7,16.6,30.03,North,357,0.0,0.0,44,0.00,,---,0.00,VWS V14.01,2013-08-10 12:16:00,
2013-08-10 05:21:00,36.7,16.6,30.03,North,357,0.0,0.0,44,0.00,,---,0.00,VWS V14.01,2013-08-10 12:21:00,
2013-08-10 05:27:00,36.5,16.4,30.03,North,357,0.0,0.0,44,0.00,,---,0.00,VWS V14.01,2013-08-10 12:27:00,
2013-08-10 05:32:00,36.3,16.2,30.03,North,357,0.0,0.0,44,0.00,,---,0.00,VWS V14.01,2013-08-10 12:32:00,
2013-08-10 05:38:00,36.5,16.4,30.03,North,357,0.0,0.0,44,0.00,,---,0.00,VWS V14.01,2013-08-10 12:38:00,
2013-08-10 05:44:00,36.9,16.7,30.03,North,357,0.0,0.0,44,0.00,,---,0.00,VWS V14.01,2013-08-10 12:44:00,
2013-08-10 05:49:00,36.7,16.6,30.03,North,357,0.0,0.0,44,0.00,,---,0.00,VWS V14.01,2013-08-10 12:49:00,
2013-08-10 05:54:00,36.3,16.2,30.03,North,357,0.0,0.0,44,0.00,,---,0.00,VWS V14.01,2013-08-10 12:54:00,
2013-08-10 06:00:00,36.1,16.1,30.03,North,357,0.0,0.0,44,0.00,,---,0.00,VWS V14.01,2013-08-10 13:00:00,
2013-08-10 06:06:00,36.3,16.2,30.06,North,357,0.0,0.0,44,0.00,,---,0.00,VWS V14.01,2013-08-10 13:06:00,
2013-08-10 06:12:00,36.1,16.1,30.06,North,357,0.0,0.0,44,0.00,,---,0.00,VWS V14.01,2013-08-10 13:12:00,
2013-08-10 06:18:00,36.1,16.1,30.06,North,357,0.0,0.0,44,0.00,,---,0.00,VWS V14.01,2013-08-10 13:18:00,
2013-08-10 06:24:00,36.3,16.2,30.06,North,357,0.0,0.0,44,0.00,,---,0.00,VWS V14.01,2013-08-10 13:24:00,
2013-08-10 06:29:00,36.5,16.4,30.06,North,357,0.0,0.0,44,0.00,,---,0.00,VWS V14.01,2013-08-10 13:29:00,
2013-08-10 06:34:00,36.7,17.4,30.06,NNE,17,0.0,0.0,45,0.00,,---,0.00,VWS V14.01,2013-08-10 13:34:00,
2013-08-10 06:40:00,37.0,17.7,30.06,NNW,339,0.0,0.0,45,0.00,,---,0.00,VWS V14.01,2013-08-10 13:40:00,
2013-08-10 06:46:00,37.6,17.4,30.06,SSE,158,0.0,0.0,44,0.00,,---,0.00,VWS V14.01,2013-08-10 13:46:00,
2013-08-10 06:52:00,38.5,18.2,30.06,South,171,0.0,0.0,44,0.00,,---,0.00,VWS V14.01,2013-08-10 13:52:00,
2013-08-10 06:57:00,39.6,19.2,30.06,South,175,0.0,0.0,44,0.00,,---,0.00,VWS V14.01,2013-08-10 13:57:00,
2013-08-10 07:03:00,40.8,20.3,30.06,South,180,0.0,0.0,44,0.00,,---,0.00,VWS V14.01,2013-08-10 14:03:00,
2013-08-10 07:09:00,42.6,21.1,30.06,South,180,0.0,0.0,42,0.00,,---,0.00,VWS V14.01,2013-08-10 14:09:00,
2013-08-10 07:14:00,44.6,22.9,30.06,South,180,0.0,0.0,42,0.00,,---,0.00,VWS V14.01,2013-08-10 14:14:00,
2013-08-10 07:20:00,46.2,24.4,30.06,South,180,0.0,0.0,42,0.00,,---,0.00,VWS V14.01,2013-08-10 14:20:00,
2013-08-10 07:26:00,47.8,25.0,30.06,South,180,0.0,0.0,40,0.00,,---,0.00,VWS V14.01,2013-08-10 14:26:00,
2013-08-10 07:31:00,49.5,25.5,30.06,South,180,0.0,0.0,39,0.00,,---,0.00,VWS V14.01,2013-08-10 14:31:00,
2013-08-10 07:36:00,51.1,27.0,30.06,South,180,0.0,0.0,39,0.00,,---,0.00,VWS V14.01,2013-08-10 14:36:00,
2013-08-10 07:42:00,52.9,28.6,30.06,South,180,0.0,0.0,39,0.00,,---,0.00,VWS V14.01,2013-08-10 14:42:00,
2013-08-10 07:47:00,54.5,27.1,30.06,South,180,0.0,0.0,34,0.00,,---,0.00,VWS V14.01,2013-08-10 14:47:00,
2013-08-10 07:53:00,56.3,27.6,30.06,South,180,0.0,0.0,33,0.00,,---,0.00,VWS V14.01,2013-08-10 14:53:00,
2013-08-10 07:59:00,57.9,29.0,30.06,SSW,198,0.0,0.0,33,0.00,,---,0.00,VWS V14.01,2013-08-10 14:59:00,
2013-08-10 08:04:00,59.4,30.3,30.06,ENE,71,0.0,0.0,33,0.00,,---,0.00,VWS V14.01,2013-08-10 15:04:00,
2013-08-10 08:10:00,61.5,28.6,30.06,ENE,71,0.0,0.0,28,0.00,,---,0.00,VWS V14.01,2013-08-10 15:10:00,
2013-08-10 08:16:00,63.5,29.0,30.06,SE,143,0.0,0.0,27,0.00,,---,0.00,VWS V14.01,2013-08-10 15:16:00,
2013-08-10 08:21:00,65.1,30.3,30.06,SE,143,0.0,0.0,27,0.00,,---,0.00,VWS V14.01,2013-08-10 15:21:00,
2013-08-10 08:27:00,66.6,30.2,30.06,South,175,3.1,4.0,26,0.00,,---,0.00,VWS V14.01,2013-08-10 15:27:00,
2013-08-10 08:32:00,67.8,31.2,30.06,SSE,159,3.1,4.0,26,0.00,,---,0.00,VWS V14.01,2013-08-10 15:32:00,
2013-08-10 08:38:00,69.3,32.5,30.06,South,170,2.7,3.6,26,0.00,,---,0.00,VWS V14.01,2013-08-10 15:38:00,
2013-08-10 08:44:00,71.2,34.1,30.06,SSW,202,0.0,0.0,26,0.00,,---,0.00,VWS V14.01,2013-08-10 15:44:00,
2013-08-10 08:50:00,72.5,33.7,30.06,West,278,3.1,3.1,24,0.00,,---,0.00,VWS V14.01,2013-08-10 15:50:00,
2013-08-10 08:55:00,73.2,34.3,30.06,SW,236,3.1,3.6,24,0.00,,---,0.00,VWS V14.01,2013-08-10 15:55:00,
2013-08-10 09:00:00,73.6,34.6,30.06,WSW,249,5.8,5.8,24,0.00,,---,0.00,VWS V14.01,2013-08-10 16:00:00,
2013-08-10 09:06:00,74.3,30.0,30.06,SW,236,7.2,8.3,20,0.00,,---,0.00,VWS V14.01,2013-08-10 16:06:00,
2013-08-10 09:11:00,75.2,30.8,30.06,NW,311,5.4,8.1,20,0.00,,---,0.00,VWS V14.01,2013-08-10 16:11:00,
2013-08-10 09:16:00,75.0,30.6,30.06,SW,236,8.1,8.1,20,0.00,,---,0.00,VWS V14.01,2013-08-10 16:16:00,
2013-08-10 09:22:00,75.2,30.8,30.06,WSW,245,7.6,8.7,20,0.00,,---,0.00,VWS V14.01,2013-08-10 16:22:00,
2013-08-10 09:28:00,75.4,30.9,30.06,West,269,7.6,7.6,20,0.00,,---,0.00,VWS V14.01,2013-08-10 16:28:00,
2013-08-10 09:33:00,75.0,30.6,30.06,SW,216,8.1,10.5,20,0.00,,---,0.00,VWS V14.01,2013-08-10 16:33:00,
2013-08-10 09:39:00,75.2,30.8,30.06,SW,234,8.3,10.1,20,0.00,,---,0.00,VWS V14.01,2013-08-10 16:39:00,
2013-08-10 09:44:00,75.2,30.8,30.06,West,275,7.6,10.5,20,0.00,,---,0.00,VWS V14.01,2013-08-10 16:44:00,
2013-08-10 09:49:00,75.4,30.9,30.06,West,271,7.6,9.2,20,0.00,,---,0.00,VWS V14.01,2013-08-10 16:49:00,
2013-08-10 09:55:00,75.4,30.9,30.06,WSW,258,10.1,10.1,20,0.00,,---,0.00,VWS V14.01,2013-08-10 16:55:00,
2013-08-10 10:01:00,75.6,31.1,30.06,WSW,258,8.1,9.2,20,0.00,,---,0.00,VWS V14.01,2013-08-10 17:01:00,
2013-08-10 10:07:00,75.9,31.4,30.06,WSW,253,8.7,11.9,20,0.00,,---,0.00,VWS V14.01,2013-08-10 17:07:00,
2013-08-10 10:13:00,76.1,31.5,30.06,West,270,10.1,10.1,20,0.00,,---,0.00,VWS V14.01,2013-08-10 17:13:00,
2013-08-10 10:19:00,76.3,31.7,30.06,West,260,8.7,8.7,20,0.00,,---,0.00,VWS V14.01,2013-08-10 17:19:00,
2013-08-10 10:24:00,75.9,31.4,30.06,West,261,8.3,8.3,20,0.00,,---,0.00,VWS V14.01,2013-08-10 17:24:00,
2013-08-10 10:29:00,76.6,32.0,30.06,West,261,8.3,8.3,20,0.00,,---,0.00,VWS V14.01,2013-08-10 17:29:00,
2013-08-10 10:35:00,77.2,32.4,30.06,West,261,8.3,8.3,20,0.00,,---,0.00,VWS V14.01,2013-08-10 17:35:00,
2013-08-10 10:41:00,77.9,36.6,30.06,West,259,12.3,12.3,22,0.00,,---,0.00,VWS V14.01,2013-08-10 17:41:00,
2013-08-10 10:46:00,78.3,36.9,30.06,West,262,5.8,7.6,22,0.00,,---,0.00,VWS V14.01,2013-08-10 17:46:00,
2013-08-10 10:52:00,78.4,37.0,30.06,SW,228,10.5,10.5,22,0.00,,---,0.00,VWS V14.01,2013-08-10 17:52:00,
2013-08-10 10:57:00,79.0,37.5,30.06,West,263,7.6,7.6,22,0.00,,---,0.00,VWS V14.01,2013-08-10 17:57:00,
2013-08-10 11:03:00,79.3,37.8,30.06,WSW,258,10.1,11.0,22,0.00,,---,0.00,VWS V14.01,2013-08-10 18:03:00,
2013-08-10 11:08:00,79.3,37.8,30.06,SW,223,8.7,11.0,22,0.00,,---,0.00,VWS V14.01,2013-08-10 18:08:00,
2013-08-10 11:14:00,79.7,38.1,30.06,West,281,8.7,9.6,22,0.00,,---,0.00,VWS V14.01,2013-08-10 18:14:00,
2013-08-10 11:19:00,79.7,38.1,30.06,West,261,8.7,10.1,22,0.00,,---,0.00,VWS V14.01,2013-08-10 18:19:00,
2013-08-10 11:25:00,79.2,37.7,30.06,WSW,248,8.1,10.5,22,0.00,,---,0.00,VWS V14.01,2013-08-10 18:25:00,
2013-08-10 11:30:00,79.3,37.8,30.06,SW,233,12.8,12.8,22,0.00,,---,0.00,VWS V14.01,2013-08-10 18:30:00,
2013-08-10 11:36:00,80.4,38.7,30.06,WSW,248,16.3,16.3,22,0.00,,---,0.00,VWS V14.01,2013-08-10 18:36:00,
2013-08-10 11:42:00,80.6,37.1,30.06,SW,236,7.6,12.8,21,0.00,,---,0.00,VWS V14.01,2013-08-10 18:42:00,
2013-08-10 11:48:00,79.9,38.2,30.06,WNW,285,8.3,8.7,22,0.00,,---,0.00,VWS V14.01,2013-08-10 18:48:00,
2013-08-10 11:54:00,79.9,38.2,30.06,SW,236,10.5,15.0,22,0.00,,---,0.00,VWS V14.01,2013-08-10 18:54:00,
2013-08-10 11:59:00,80.1,38.4,30.06,West,263,7.6,8.3,22,0.00,,---,0.00,VWS V14.01,2013-08-10 18:59:00,
2013-08-10 12:04:00,78.8,37.3,30.06,WNW,283,13.2,13.2,22,0.00,,---,0.00,VWS V14.01,2013-08-10 19:04:00,
2013-08-10 12:10:00,79.7,38.1,30.06,SW,233,10.5,12.8,22,0.00,,---,0.00,VWS V14.01,2013-08-10 19:10:00,
2013-08-10 12:16:00,79.7,38.1,30.06,West,263,11.0,11.0,22,0.00,,---,0.00,VWS V14.01,2013-08-10 19:16:00,
2013-08-10 12:22:00,81.0,37.4,30.06,SW,223,12.8,15.0,21,0.00,,---,0.00,VWS V14.01,2013-08-10 19:22:00,
2013-08-10 12:28:00,81.5,37.8,30.06,SW,217,13.2,13.2,21,0.00,,---,0.00,VWS V14.01,2013-08-10 19:28:00,
2013-08-10 12:34:00,80.4,38.7,30.06,West,270,5.8,11.0,22,0.00,,---,0.00,VWS V14.01,2013-08-10 19:34:00,
2013-08-10 12:39:00,81.0,37.4,30.06,SW,236,8.1,13.2,21,0.00,,---,0.00,VWS V14.01,2013-08-10 19:39:00,
2013-08-10 12:45:00,81.3,37.7,30.06,WSW,255,8.7,10.5,21,0.00,,---,0.00,VWS V14.01,2013-08-10 19:45:00,
2013-08-10 12:50:00,81.5,37.8,30.06,NW,312,8.3,8.7,21,0.00,,---,0.00,VWS V14.01,2013-08-10 19:50:00,
2013-08-10 12:55:00,80.6,37.1,30.06,NW,305,8.1,8.7,21,0.00,,---,0.00,VWS V14.01,2013-08-10 19:55:00,
2013-08-10 13:00:00,81.3,37.7,30.06,West,270,11.0,14.5,21,0.00,,---,0.00,VWS V14.01,2013-08-10 20:00:00,
2013-08-10 13:06:00,82.0,38.3,30.06,West,276,3.6,8.7,21,0.00,,---,0.00,VWS V14.01,2013-08-10 20:06:00,
2013-08-10 13:12:00,82.0,38.3,30.06,West,271,8.3,12.8,21,0.00,,---,0.00,VWS V14.01,2013-08-10 20:12:00,
2013-08-10 13:17:00,82.2,38.4,30.06,WSW,255,8.7,11.0,21,0.00,,---,0.00,VWS V14.01,2013-08-10 20:17:00,
2013-08-10 13:23:00,82.6,38.7,30.06,WNW,286,8.7,15.0,21,0.00,,---,0.00,VWS V14.01,2013-08-10 20:23:00,
2013-08-10 13:28:00,82.0,38.3,30.06,West,278,8.1,8.3,21,0.00,,---,0.00,VWS V14.01,2013-08-10 20:28:00,
2013-08-10 13:34:00,81.7,38.0,30.06,WSW,250,10.5,15.0,21,0.00,,---,0.00,VWS V14.01,2013-08-10 20:34:00,
2013-08-10 13:40:00,82.8,38.9,30.06,WSW,246,10.1,10.5,21,0.00,,---,0.00,VWS V14.01,2013-08-10 20:40:00,
2013-08-10 13:45:00,82.9,39.0,30.06,WSW,248,6.3,11.0,21,0.00,,---,0.00,VWS V14.01,2013-08-10 20:45:00,
2013-08-10 13:51:00,83.8,39.8,30.06,West,278,10.1,13.2,21,0.00,,---,0.00,VWS V14.01,2013-08-10 20:51:00,
2013-08-10 13:57:00,82.0,38.3,30.06,WNW,298,8.7,12.3,21,0.00,,---,0.00,VWS V14.01,2013-08-10 20:57:00,
2013-08-10 14:03:00,81.5,37.8,30.06,West,263,8.1,8.7,21,0.00,,---,0.00,VWS V14.01,2013-08-10 21:03:00,
2013-08-10 14:08:00,81.7,38.0,30.06,WSW,253,8.3,13.2,21,0.00,,---,0.00,VWS V14.01,2013-08-10 21:08:00,
2013-08-10 14:14:00,82.9,39.0,30.06,West,262,12.8,15.4,21,0.00,,---,0.00,VWS V14.01,2013-08-10 21:14:00,
2013-08-10 14:19:00,84.2,38.2,30.06,West,269,12.3,12.3,20,0.00,,---,0.00,VWS V14.01,2013-08-10 21:19:00,
2013-08-10 14:21:00,84.0,39.9,30.06,WNW,297,12.8,13.2,21,0.00,,---,0.00,VWS V14.01,2013-08-10 21:21:00,
2013-08-10 14:27:00,82.6,38.7,30.06,WSW,254,12.3,15.4,21,0.00,,---,0.00,VWS V14.01,2013-08-10 21:27:00,
2013-08-10 14:33:00,82.8,38.9,30.06,WSW,239,10.5,12.8,21,0.00,,---,0.00,VWS V14.01,2013-08-10 21:33:00,
2013-08-10 14:38:00,83.3,39.3,30.06,West,262,5.8,13.2,21,0.00,,---,0.00,VWS V14.01,2013-08-10 21:38:00,
2013-08-10 14:44:00,82.0,38.3,30.06,NW,306,9.6,13.2,21,0.00,,---,0.00,VWS V14.01,2013-08-10 21:44:00,
2013-08-10 14:49:00,82.9,39.0,30.06,West,260,12.3,14.5,21,0.00,,---,0.00,VWS V14.01,2013-08-10 21:49:00,
2013-08-10 14:54:00,82.2,38.4,30.06,West,267,12.8,13.2,21,0.00,,---,0.00,VWS V14.01,2013-08-10 21:54:00,
2013-08-10 15:00:00,81.3,37.7,30.06,WNW,292,12.3,12.3,21,0.00,,---,0.00,VWS V14.01,2013-08-10 22:00:00,
2013-08-10 15:05:00,81.7,38.0,30.06,West,263,10.5,10.5,21,0.00,,---,0.00,VWS V14.01,2013-08-10 22:05:00,
2013-08-10 15:12:00,82.2,38.4,30.06,West,267,13.2,13.2,21,0.00,,---,0.00,VWS V14.01,2013-08-10 22:12:00,
2013-08-10 15:17:00,81.0,37.4,30.06,NW,304,10.5,10.5,21,0.00,,---,0.00,VWS V14.01,2013-08-10 22:17:00,
2013-08-10 15:22:00,81.5,37.8,30.03,NW,311,10.5,15.4,21,0.00,,---,0.00,VWS V14.01,2013-08-10 22:22:00,
2013-08-10 15:28:00,80.2,38.5,30.03,WSW,241,10.5,10.5,22,0.00,,---,0.00,VWS V14.01,2013-08-10 22:28:00,
2013-08-10 15:33:00,82.0,38.3,30.03,WSW,257,15.4,15.4,21,0.00,,---,0.00,VWS V14.01,2013-08-10 22:33:00,
2013-08-10 15:39:00,82.0,38.3,30.03,West,267,10.5,13.2,21,0.00,,---,0.00,VWS V14.01,2013-08-10 22:39:00,
2013-08-10 15:45:00,81.1,37.5,30.03,SSW,211,8.3,12.8,21,0.00,,---,0.00,VWS V14.01,2013-08-10 22:45:00,
2013-08-10 15:51:00,82.2,38.4,30.03,West,268,11.0,12.8,21,0.00,,---,0.00,VWS V14.01,2013-08-10 22:51:00,
2013-08-10 15:57:00,81.5,37.8,30.03,WSW,247,11.9,11.9,21,0.00,,---,0.00,VWS V14.01,2013-08-10 22:57:00,
2013-08-10 16:02:00,81.9,38.1,30.03,WSW,254,10.1,13.2,21,0.00,,---,0.00,VWS V14.01,2013-08-10 23:02:00,
2013-08-10 16:08:00,81.1,37.5,30.03,West,266,11.0,12.8,21,0.00,,---,0.00,VWS V14.01,2013-08-10 23:08:00,
2013-08-10 16:13:00,81.5,37.8,30.03,West,273,10.1,10.5,21,0.00,,---,0.00,VWS V14.01,2013-08-10 23:13:00,
2013-08-10 16:18:00,81.7,38.0,30.03,SSW,213,7.6,10.1,21,0.00,,---,0.00,VWS V14.01,2013-08-10 23:18:00,
2013-08-10 16:24:00,80.1,38.4,30.03,NNW,329,11.0,14.5,22,0.00,,---,0.00,VWS V14.01,2013-08-10 23:24:00,
2013-08-10 16:30:00,81.0,37.4,30.03,WNW,300,8.1,8.1,21,0.00,,---,0.00,VWS V14.01,2013-08-10 23:30:00,
2013-08-10 16:35:00,80.4,38.7,30.03,West,281,7.6,8.1,22,0.00,,---,0.00,VWS V14.01,2013-08-10 23:35:00,
2013-08-10 16:40:00,79.3,37.8,30.03,WSW,256,10.5,11.9,22,0.00,,---,0.00,VWS V14.01,2013-08-10 23:40:00,
2013-08-10 16:46:00,80.6,37.1,30.03,WNW,303,10.5,12.8,21,0.00,,---,0.00,VWS V14.01,2013-08-10 23:46:00,
2013-08-10 16:51:00,80.6,37.1,30.03,West,264,6.3,8.3,21,0.00,,---,0.00,VWS V14.01,2013-08-10 23:51:00,
2013-08-10 16:57:00,80.8,37.2,30.03,West,275,8.3,11.0,21,0.00,,---,0.00,VWS V14.01,2013-08-10 23:57:00,
2013-08-10 17:02:00,79.9,38.2,30.03,NW,310,8.3,12.8,22,0.00,,---,0.00,VWS V14.01,2013-08-11 00:02:00,
2013-08-10 17:08:00,80.1,38.4,30.03,SW,234,8.7,10.1,22,0.00,,---,0.00,VWS V14.01,2013-08-11 00:08:00,
2013-08-10 17:13:00,79.9,38.2,30.03,West,273,8.7,10.5,22,0.00,,---,0.00,VWS V14.01,2013-08-11 00:13:00,
2013-08-10 17:19:00,79.2,37.7,30.03,WSW,254,5.8,5.8,22,0.00,,---,0.00,VWS V14.01,2013-08-11 00:19:00,
2013-08-10 17:24:00,79.2,37.7,30.03,WSW,257,10.1,10.1,22,0.00,,---,0.00,VWS V14.01,2013-08-11 00:24:00,
2013-08-10 17:29:00,79.5,38.0,30.03,WSW,257,10.1,10.1,22,0.00,,---,0.00,VWS V14.01,2013-08-11 00:29:00,
2013-08-10 17:35:00,78.8,37.3,30.03,WSW,257,10.5,11.0,22,0.00,,---,0.00,VWS V14.01,2013-08-11 00:35:00,
2013-08-10 17:40:00,78.6,37.2,30.03,West,263,8.7,11.0,22,0.00,,---,0.00,VWS V14.01,2013-08-11 00:40:00,
2013-08-10 17:45:00,78.3,36.9,30.03,WSW,256,10.1,10.5,22,0.00,,---,0.00,VWS V14.01,2013-08-11 00:45:00,
2013-08-10 17:50:00,77.4,36.2,30.03,WNW,298,8.7,8.7,22,0.00,,---,0.00,VWS V14.01,2013-08-11 00:50:00,
2013-08-10 17:55:00,77.2,36.0,30.03,WNW,298,8.7,8.7,22,0.00,,---,0.00,VWS V14.01,2013-08-11 00:55:00,
2013-08-10 18:00:00,76.8,35.7,30.03,WNW,298,8.7,8.7,22,0.00,,---,0.00,VWS V14.01,2013-08-11 01:00:00,
2013-08-10 18:06:00,76.5,35.4,30.03,WNW,298,8.7,8.7,22,0.00,,---,0.00,VWS V14.01,2013-08-11 01:06:00,
2013-08-10 18:11:00,76.6,35.5,30.03,WNW,298,8.7,8.7,22,0.00,,---,0.00,VWS V14.01,2013-08-11 01:11:00,
2013-08-10 18:16:00,76.5,35.4,30.03,WNW,298,8.7,8.7,22,0.00,,---,0.00,VWS V14.01,2013-08-11 01:16:00,
2013-08-10 18:21:00,77.2,36.0,30.03,WNW,298,8.7,8.7,22,0.00,,---,0.00,VWS V14.01,2013-08-11 01:21:00,
2013-08-10 18:27:00,76.8,35.7,30.03,WNW,298,8.7,8.7,22,0.00,,---,0.00,VWS V14.01,2013-08-11 01:27:00,
2013-08-10 18:33:00,75.7,34.8,30.03,WNW,298,8.7,8.7,22,0.00,,---,0.00,VWS V14.01,2013-08-11 01:33:00,
2013-08-10 18:38:00,74.8,30.5,30.03,WNW,298,8.7,8.7,20,0.00,,---,0.00,VWS V14.01,2013-08-11 01:38:00,
2013-08-10 18:44:00,74.3,30.0,30.03,WNW,298,8.7,8.7,20,0.00,,---,0.00,VWS V14.01,2013-08-11 01:44:00,
2013-08-10 18:50:00,74.1,29.9,30.03,WNW,298,8.7,8.7,20,0.00,,---,0.00,VWS V14.01,2013-08-11 01:50:00,
2013-08-10 18:55:00,73.6,29.5,30.03,WNW,298,8.7,8.7,20,0.00,,---,0.00,VWS V14.01,2013-08-11 01:55:00,
2013-08-10 19:00:00,73.6,29.5,30.03,WNW,298,8.7,8.7,20,0.00,,---,0.00,VWS V14.01,2013-08-11 02:00:00,
2013-08-10 19:05:00,73.6,29.5,30.03,WNW,298,8.7,8.7,20,0.00,,---,0.00,VWS V14.01,2013-08-11 02:05:00,
2013-08-10 19:10:00,72.7,30.5,30.03,WNW,298,8.7,8.7,21,0.00,,---,0.00,VWS V14.01,2013-08-11 02:10:00,
2013-08-10 19:16:00,72.0,29.9,30.03,WNW,298,8.7,8.7,21,0.00,,---,0.00,VWS V14.01,2013-08-11 02:16:00,
2013-08-10 19:21:00,71.1,29.2,30.03,WNW,298,8.7,8.7,21,0.00,,---,0.00,VWS V14.01,2013-08-11 02:21:00,
2013-08-10 19:26:00,70.5,28.7,30.03,WNW,298,8.7,8.7,21,0.00,,---,0.00,VWS V14.01,2013-08-11 02:26:00,
2013-08-10 19:33:00,69.8,28.1,30.03,WNW,298,8.7,8.7,21,0.00,,---,0.00,VWS V14.01,2013-08-11 02:33:00,
2013-08-10 19:38:00,69.6,29.7,30.03,WNW,298,8.7,8.7,22,0.00,,---,0.00,VWS V14.01,2013-08-11 02:38:00,
2013-08-10 19:44:00,69.1,29.2,30.03,WNW,298,8.7,8.7,22,0.00,,---,0.00,VWS V14.01,2013-08-11 02:44:00,
2013-08-10 19:50:00,68.4,28.6,30.03,WNW,298,8.7,8.7,22,0.00,,---,0.00,VWS V14.01,2013-08-11 02:50:00,
2013-08-10 19:56:00,67.8,28.2,30.03,WNW,298,8.7,8.7,22,0.00,,---,0.00,VWS V14.01,2013-08-11 02:56:00,
2013-08-10 20:01:00,67.5,27.9,30.03,WNW,298,8.7,8.7,22,0.00,,---,0.00,VWS V14.01,2013-08-11 03:01:00,
2013-08-10 20:06:00,67.1,27.6,30.03,WNW,298,8.7,8.7,22,0.00,,---,0.00,VWS V14.01,2013-08-11 03:06:00,
2013-08-10 20:11:00,66.6,27.1,30.03,WNW,298,8.7,8.7,22,0.00,,---,0.00,VWS V14.01,2013-08-11 03:11:00,
2013-08-10 20:18:00,66.4,27.0,30.03,WSW,255,4.9,5.8,22,0.00,,---,0.00,VWS V14.01,2013-08-11 03:18:00,
2013-08-10 20:24:00,66.0,26.6,30.03,West,272,3.1,3.1,22,0.00,,---,0.00,VWS V14.01,2013-08-11 03:24:00,
2013-08-10 20:30:00,65.7,26.4,30.03,West,266,0.0,2.7,22,0.00,,---,0.00,VWS V14.01,2013-08-11 03:30:00,
2013-08-10 20:36:00,65.1,25.9,30.03,West,266,0.0,0.0,22,0.00,,---,0.00,VWS V14.01,2013-08-11 03:36:00,
2013-08-10 20:42:00,64.8,25.6,30.03,West,266,0.0,0.0,22,0.00,,---,0.00,VWS V14.01,2013-08-11 03:42:00,
2013-08-10 20:47:00,64.6,25.5,30.03,West,266,0.0,0.0,22,0.00,,---,0.00,VWS V14.01,2013-08-11 03:47:00,
2013-08-10 20:53:00,64.4,25.3,30.03,West,266,2.7,3.1,22,0.00,,---,0.00,VWS V14.01,2013-08-11 03:53:00,
2013-08-10 20:58:00,64.0,26.5,30.03,WSW,257,2.7,2.7,24,0.00,,---,0.00,VWS V14.01,2013-08-11 03:58:00,
2013-08-10 21:01:00,63.9,26.4,30.03,WSW,257,0.0,2.7,24,0.00,,---,0.00,VWS V14.01,2013-08-11 04:01:00,
2013-08-10 21:02:00,63.9,26.4,30.03,WSW,257,2.7,2.7,24,0.00,,---,0.00,VWS V14.01,2013-08-11 04:02:00,
2013-08-10 21:07:00,63.7,26.2,30.06,West,267,2.7,2.7,24,0.00,,---,0.00,VWS V14.01,2013-08-11 04:07:00,
2013-08-10 21:10:00,63.5,26.1,30.06,West,267,2.7,3.1,24,0.00,,---,0.00,VWS V14.01,2013-08-11 04:10:00,
2013-08-10 21:11:00,63.5,26.1,30.06,WNW,292,3.6,3.6,24,0.00,,---,0.00,VWS V14.01,2013-08-11 04:11:00,
2013-08-10 21:16:00,63.1,25.8,30.06,WNW,292,2.7,2.7,24,0.00,,---,0.00,VWS V14.01,2013-08-11 04:16:00,
2013-08-10 21:22:00,62.8,25.5,30.06,WNW,292,0.0,0.0,24,0.00,,---,0.00,VWS V14.01,2013-08-11 04:22:00,
2013-08-10 21:27:00,62.6,25.3,30.06,WNW,292,0.0,0.0,24,0.00,,---,0.00,VWS V14.01,2013-08-11 04:27:00,
2013-08-10 21:33:00,61.9,24.7,30.06,WNW,292,0.0,0.0,24,0.00,,---,0.00,VWS V14.01,2013-08-11 04:33:00,
2013-08-10 21:38:00,61.2,24.1,30.06,NNE,28,0.0,0.0,24,0.00,,---,0.00,VWS V14.01,2013-08-11 04:38:00,
2013-08-10 21:43:00,60.6,25.1,30.06,East,87,0.0,0.0,26,0.00,,---,0.00,VWS V14.01,2013-08-11 04:43:00,
2013-08-10 21:48:00,60.1,24.6,30.06,ENE,63,0.0,0.0,26,0.00,,---,0.00,VWS V14.01,2013-08-11 04:48:00,
2013-08-10 21:54:00,59.5,24.2,30.06,ENE,63,0.0,0.0,26,0.00,,---,0.00,VWS V14.01,2013-08-11 04:54:00,
2013-08-10 22:00:00,59.0,23.7,30.06,NNE,18,3.1,3.1,26,0.00,,---,0.00,VWS V14.01,2013-08-11 05:00:00,
2013-08-10 22:06:00,57.9,22.8,30.06,NE,45,4.5,4.9,26,0.00,,---,0.00,VWS V14.01,2013-08-11 05:06:00,
2013-08-10 22:11:00,57.6,22.5,30.06,East,85,2.2,2.2,26,0.00,,---,0.00,VWS V14.01,2013-08-11 05:11:00,
2013-08-10 22:17:00,57.2,22.2,30.06,ESE,120,0.0,0.0,26,0.00,,---,0.00,VWS V14.01,2013-08-11 05:17:00,
2013-08-10 22:23:00,56.8,21.9,30.06,ESE,120,0.0,0.0,26,0.00,,---,0.00,VWS V14.01,2013-08-11 05:23:00,
2013-08-10 22:29:00,56.5,21.6,30.06,NE,56,0.0,0.0,26,0.00,,---,0.00,VWS V14.01,2013-08-11 05:29:00,
2013-08-10 22:34:00,56.3,21.4,30.06,ENE,71,4.0,4.0,26,0.00,,---,0.00,VWS V14.01,2013-08-11 05:34:00,
2013-08-10 22:40:00,55.8,21.0,30.06,NE,48,0.0,0.0,26,0.00,,---,0.00,VWS V14.01,2013-08-11 05:40:00,
2013-08-10 22:45:00,55.0,21.7,30.06,NE,48,0.0,0.0,27,0.00,,---,0.00,VWS V14.01,2013-08-11 05:45:00,
2013-08-10 22:50:00,54.5,21.2,30.06,NE,48,0.0,0.0,27,0.00,,---,0.00,VWS V14.01,2013-08-11 05:50:00,
2013-08-10 22:55:00,54.1,20.9,30.06,NE,48,0.0,0.0,27,0.00,,---,0.00,VWS V14.01,2013-08-11 05:55:00,
2013-08-10 23:01:00,54.1,20.9,30.06,NE,48,0.0,0.0,27,0.00,,---,0.00,VWS V14.01,2013-08-11 06:01:00,
2013-08-10 23:07:00,53.8,20.6,30.06,SE,127,0.0,0.0,27,0.00,,---,0.00,VWS V14.01,2013-08-11 06:07:00,
2013-08-10 23:12:00,53.2,20.1,30.06,SE,127,0.0,0.0,27,0.00,,---,0.00,VWS V14.01,2013-08-11 06:12:00,
2013-08-10 23:18:00,52.9,19.8,30.06,SE,124,0.0,0.0,27,0.00,,---,0.00,VWS V14.01,2013-08-11 06:18:00,
2013-08-10 23:23:00,52.2,19.2,30.06,ENE,65,0.0,0.0,27,0.00,,---,0.00,VWS V14.01,2013-08-11 06:23:00,
2013-08-10 23:29:00,52.0,19.1,30.06,ENE,77,0.0,0.0,27,0.00,,---,0.00,VWS V14.01,2013-08-11 06:29:00,
2013-08-10 23:36:00,52.0,19.1,30.06,ENE,77,0.0,0.0,27,0.00,,---,0.00,VWS V14.01,2013-08-11 06:36:00,
2013-08-10 23:42:00,51.8,18.9,30.06,ENE,77,0.0,0.0,27,0.00,,---,0.00,VWS V14.01,2013-08-11 06:42:00,
2013-08-10 23:48:00,51.6,22.4,30.06,ENE,77,0.0,0.0,32,0.00,,---,0.00,VWS V14.01,2013-08-11 06:48:00,
2013-08-10 23:53:00,51.1,21.9,30.06,ENE,77,0.0,0.0,32,0.00,,---,0.00,VWS V14.01,2013-08-11 06:53:00,
2013-08-10 23:58:00,50.5,21.4,30.06,ENE,77,0.0,0.0,32,0.00,,---,0.00,VWS V14.01,2013-08-11 06:58:00,